sat.trackr.live / text

‹ back to catalog

STARLINK-4051

NORAD 53273 · 2022-086AH

PAYLOAD ACTIVE UNKNOWN

§ Identity

Operator
Country
US
Launch date
2022-07-24
Launch site
AFETR
Launch vehicle
Mass (kg)
RCS (m²)

Purposes: comms

External: N2YO · Heavens-Above · Gunter

§ Orbital elements

Epoch: 2026-05-25T03:17:05.587008Z

Period
95.44 min
Inclination
53.2140°
Eccentricity
0.0001142
Mean motion
15.08836381 rev/d
Perigee alt
539.0 km
Apogee alt
540.5 km
Semi-major
6,917.9 km
B*
2.8517e-5
RAAN
200.9367°
Arg perigee
88.2810°
Mean anomaly
271.8313°
Rev number
21,273

§ Raw data

STARLINK-40511 53273U 22086AH  26145.13687022  .00000166  00000+0  28517-4 0  99942 53273  53.2140 200.9367 0001142  88.2810 271.8313 15.08836381212732

JSON: /api/v1/satellites/53273 · /tle

For live sub-satellite position, see the globe view (requires WebGL).

§ Visibility from observer

Set your observer location to see the next 7 days of passes ≥ 10°. The values pass through the URL so the page stays shareable.

No JS? Fill the form by hand. The geolocation button needs JavaScript.